Regional Weather Roundup
Issued by NWS

Home | Current Version | Previous Version | Graphics & Text | Print | Product List | Glossary On
Versions: 1 2 3 4 5 6 7 8 9 10 11 12 13 14 15 16 17 18 19 20 21 22 23 24 25 26 27 28 29 30 31 32 33 34 35 36 37 38 39 40 41 42 43 44 45 46 47 48 49 50
313
ASUS43 KOAX 180602
RWRNE

WEATHER ROUNDUP FOR NEBRASKA
NATIONAL WEATHER SERVICE OMAHA NE
1200 AM CST WED JAN 18 2017

NOTES: SATELLITE DATA IS BEING USED TO AUGMENT CLOUD COVER ABOVE
       12000 FEET.
       "FAIR" INDICATES FEW OR NO CLOUDS BELOW 12,000 FEET WITH NO
       SIGNIFICANT WEATHER AND/OR OBSTRUCTIONS TO VISIBILITY.

  * THESE STATIONS DO NOT REPORT WEATHER SUCH AS RAIN...SNOW OR FOG.

NEZ001>004-019>022-054>056-180700-
NEBRASKA PANHANDLE

CITY           SKY/WX    TMP DP  RH WIND       PRES   REMARKS
SCOTTSBLUFF    CLOUDY    28  15  58 NW8       29.97S WCI  20
6HR MIN TEMP:  27; 6HR MAX TEMP:  41;

ALLIANCE       CLOUDY    17  13  84 W8        29.94S WCI   7
6HR MIN TEMP:  16; 6HR MAX TEMP:  34;

CHADRON        CLOUDY    18  14  84 SW8       29.93S WCI   8
6HR MIN TEMP:  16; 6HR MAX TEMP:  30;

KIMBALL        CLOUDY    28  24  86 W9        29.98F WCI  19
SIDNEY         CLOUDY    24  21  88 W6        29.98S WCI  17
6HR MIN TEMP:  24; 6HR MAX TEMP:  35;

$$

NEZ057>060-069>072-079>082-180700-
SOUTHWEST NEBRASKA

CITY           SKY/WX    TMP DP  RH WIND       PRES   REMARKS
NORTH PLATTE   CLOUDY    28  25  88 MISG      30.03R
6HR MIN TEMP:  24; 6HR MAX TEMP:  39;

IMPERIAL       CLOUDY    32  28  85 SW13      30.04S WCI  22
6HR MIN TEMP:  29; 6HR MAX TEMP:  38;

LEXINGTON      CLEAR     35  28  74 SW12      30.06R WCI  27
MCCOOK         CLOUDY    31  27  85 W8        30.06S WCI  23
6HR MIN TEMP:  29; 6HR MAX TEMP:  43;

OGALLALA       CLOUDY    26  24  92 SW5       30.01R WCI  20
$$

NEZ005>010-023>029-035>040-094-180700-
NORTH CENTRAL NEBRASKA

CITY           SKY/WX    TMP DP  RH WIND       PRES   REMARKS
VALENTINE      CLOUDY    24  18  77 SW3       29.91S
6HR MIN TEMP:  23; 6HR MAX TEMP:  35;

AINSWORTH      CLOUDY    32  27  83 SW12      29.92S WCI  23
BROKEN BOW     CLOUDY    31  25  78 SW8       30.01R WCI  23
6HR MIN TEMP:  24; 6HR MAX TEMP:  37;

O`NEILL        CLOUDY    31  27  84 SW9       29.95S WCI  23
ORD            CLEAR     31  24  75 SW14      30.00S WCI  21
6HR MIN TEMP:  26; 6HR MAX TEMP:  35;

THEDFORD       CLOUDY    29  26  90 CALM      29.96S
$$

NEZ041-046>049-061>064-073>077-083>087-180700-
SOUTH CENTRAL NEBRASKA

CITY           SKY/WX    TMP DP  RH WIND       PRES   REMARKS
GRAND ISLAND   CLEAR     35  31  85 SW16      30.06R WCI  25
6HR MIN TEMP:  30; 6HR MAX TEMP:  35;

AURORA         CLEAR     32  30  93 SW10      30.07R WCI  24
HASTINGS       CLEAR     35  28  75 SW9       30.08R WCI  28
6HR MIN TEMP:  32; 6HR MAX TEMP:  37;

HEBRON         CLOUDY    32  29  89 SW7       30.11S WCI  26
HOLDREGE       CLEAR     33  28  80 SW8       30.06F WCI  26
KEARNEY *      CLEAR     36  28  75 SW10      30.07R WCI  28
YORK           CLEAR     32  32 100 SW10      30.08R WCI  24
$$

NEZ011>018-030>034-042>045-180700-
NORTHEAST NEBRASKA

CITY           SKY/WX    TMP DP  RH WIND       PRES   REMARKS
NORFOLK        CLOUDY    31  28  89 S10       30.00S WCI  22
6HR MIN TEMP:  27; 6HR MAX TEMP:  32;

ALBION         CLOUDY    31  28  88 S5        30.01S WCI  26
BLAIR          CLEAR     29  28  96 S5        30.08R FOG     WCI  24
FREMONT        CLEAR     32  32  99 S8        30.07R WCI  25
TEKAMAH        CLOUDY    29  27  92 SE8       30.07R FOG     WCI  21
6HR MIN TEMP:  29; 6HR MAX TEMP:  32;

WAYNE          CLOUDY    28  27  96 S7        30.01F WCI  20
$$

NEZ050>053-065>068-078-088>093-180700-
SOUTHEAST NEBRASKA

CITY           SKY/WX    TMP DP  RH WIND       PRES   REMARKS
LINCOLN        CLEAR     28  26  92 S5        30.12R WCI  23
6HR MIN TEMP:  25; 6HR MAX TEMP:  31;

OMAHA EPPLEY   CLEAR     28  24  85 S12       30.11R FOG     WCI  18
6HR MIN TEMP:  25; 6HR MAX TEMP:  30;

BEATRICE       CLEAR     30  29  95 CALM      30.11F
FALLS CITY     CLOUDY    27  26  96 CALM      30.12F
6HR MIN TEMP:  27; 6HR MAX TEMP:  33;

NEBRASKA CITY  CLOUDY    29  29 100 S8        30.12S WCI  21
PLATTSMOUTH    CLOUDY    30  27  90 S12       30.11S WCI  20
$$

NEZ044-045-051>053-067-180700-
OMAHA AREA

CITY           SKY/WX    TMP DP  RH WIND       PRES   REMARKS
OMAHA EPPLEY   CLEAR     28  24  85 S12       30.11R FOG     WCI  18
6HR MIN TEMP:  25; 6HR MAX TEMP:  30;

BLAIR          CLEAR     29  28  96 S5        30.08R FOG     WCI  24
FREMONT        CLEAR     32  32  99 S8        30.07R WCI  25
MILLARD        CLEAR     29  28  96 SE3       30.11R
PLATTSMOUTH    CLOUDY    30  27  90 S12       30.11S WCI  20
WAHOO          FAIR      31  29  95 S8        30.09R WCI  23
$$




USA.gov is the U.S. government's official web portal to all federal, state and local government web resources and services.